When you browse on this site, cookies collect data to enhance your experience and personalize the content and advertising you see.
Visit our Privacy Policy to learn more. By continuing to use the site, you agree to this use of cookies and data.
  • en Belgique
  • Liste des pays
  • À 7 jours
  • Température de l'eau
  • Carte satellitaire
  • Carte météo
  • Widgets météo
  • user-avatar
    Se connecter

    Météo par heure à Mochudi

    Ce jour, 24 Juillet, Mercredi

    Heure Température Précipitation Vent Pression Humidité
    00:00 +13°C° 0 mm 3 m/s 680 mmHg 29%
    01:00 +12°C° 0 mm 3 m/s 680 mmHg 30%
    02:00 +11°C° 0 mm 4 m/s 680 mmHg 30%
    03:00 +11°C° 0 mm 3 m/s 680 mmHg 29%
    04:00 +10°C° 0 mm 3 m/s 680 mmHg 28%
    05:00 +9°C° 0 mm 3 m/s 680 mmHg 26%
    06:00 +9°C° 0 mm 3 m/s 681 mmHg 30%
    07:00 +9°C° 0 mm 3 m/s 681 mmHg 33%
    08:00 +9°C° 0 mm 3 m/s 681 mmHg 36%
    09:00 +12°C° 0 mm 3 m/s 682 mmHg 32%
    10:00 +16°C° 0 mm 3 m/s 683 mmHg 27%
    11:00 +18°C° 0 mm 4 m/s 684 mmHg 23%
    12:00 +20°C° 0 mm 3 m/s 683 mmHg 19%
    13:00 +22°C° 0 mm 3 m/s 683 mmHg 15%
    14:00 +25°C° 0 mm 2 m/s 683 mmHg 11%
    15:00 +25°C° 0 mm 2 m/s 682 mmHg 11%
    16:00 +25°C° 0 mm 2 m/s 682 mmHg 11%
    17:00 +24°C° 0 mm 2 m/s 682 mmHg 11%
    18:00 +21°C° 0 mm 1 m/s 682 mmHg 14%
    19:00 +18°C° 0 mm 1 m/s 682 mmHg 18%
    20:00 +14°C° 0 mm 1 m/s 682 mmHg 21%
    21:00 +13°C° 0 mm 1 m/s 682 mmHg 22%
    22:00 +12°C° 0 mm 1 m/s 682 mmHg 23%
    23:00 +11°C° 0 mm 1 m/s 683 mmHg 24%

    Demain, 25 Juillet, Jeudi

    Heure Température Précipitation Vent Pression Humidité
    00:00 +11°C° 0 mm 1 m/s 682 mmHg 25%
    01:00 +10°C° 0 mm 1 m/s 682 mmHg 26%
    02:00 +9°C° 0 mm 1 m/s 681 mmHg 27%
    03:00 +9°C° 0 mm 1 m/s 681 mmHg 28%
    04:00 +8°C° 0 mm 1 m/s 682 mmHg 29%
    05:00 +8°C° 0 mm 1 m/s 682 mmHg 31%
    06:00 +8°C° 0 mm 1 m/s 682 mmHg 30%
    07:00 +9°C° 0 mm 1 m/s 683 mmHg 29%
    08:00 +10°C° 0 mm 1 m/s 684 mmHg 28%
    09:00 +13°C° 0 mm 2 m/s 684 mmHg 26%
    10:00 +16°C° 0 mm 2 m/s 685 mmHg 24%
    11:00 +20°C° 0 mm 3 m/s 686 mmHg 22%
    12:00 +22°C° 0 mm 3 m/s 685 mmHg 19%
    13:00 +25°C° 0 mm 3 m/s 685 mmHg 16%
    14:00 +27°C° 0 mm 2 m/s 685 mmHg 13%
    15:00 +26°C° 0 mm 2 m/s 684 mmHg 13%
    16:00 +26°C° 0 mm 1 m/s 684 mmHg 12%
    17:00 +23°C° 0 mm 0 m/s 684 mmHg 11%
    18:00 +22°C° 0 mm 1 m/s 684 mmHg 14%
    19:00 +19°C° 0 mm 1 m/s 683 mmHg 17%
    20:00 +16°C° 0 mm 1 m/s 683 mmHg 20%
    21:00 +15°C° 0 mm 1 m/s 683 mmHg 25%
    22:00 +13°C° 0 mm 1 m/s 684 mmHg 29%
    23:00 +12°C° 0 mm 1 m/s 684 mmHg 33%

    Après-demain, 26 Juillet, Vendredi

    Heure Température Précipitation Vent Pression Humidité
    00:00 +12°C° 0 mm 1 m/s 684 mmHg 41%
    01:00 +10°C° 0 mm 0 m/s 683 mmHg 48%
    02:00 +9°C° 0 mm 0 m/s 683 mmHg 56%
    03:00 +9°C° 0 mm 0 m/s 683 mmHg 59%
    04:00 +9°C° 0 mm 1 m/s 683 mmHg 63%
    05:00 +9°C° 0 mm 1 m/s 683 mmHg 66%
    06:00 +10°C° 0 mm 1 m/s 683 mmHg 64%
    07:00 +10°C° 0 mm 1 m/s 684 mmHg 61%
    08:00 +11°C° 0 mm 1 m/s 684 mmHg 59%
    09:00 +15°C° 0 mm 1 m/s 685 mmHg 50%
    10:00 +19°C° 0 mm 1 m/s 686 mmHg 41%
    11:00 +23°C° 0 mm 2 m/s 686 mmHg 31%
    12:00 +24°C° 0 mm 2 m/s 686 mmHg 25%
    13:00 +26°C° 0 mm 2 m/s 685 mmHg 20%
    14:00 +28°C° 0 mm 2 m/s 685 mmHg 14%
    15:00 +27°C° 0 mm 2 m/s 685 mmHg 13%
    16:00 +27°C° 0 mm 2 m/s 684 mmHg 13%
    17:00 +26°C° 0 mm 2 m/s 684 mmHg 13%
    18:00 +23°C° 0 mm 1 m/s 684 mmHg 17%
    19:00 +20°C° 0 mm 1 m/s 684 mmHg 20%
    20:00 +15°C° 0 mm 0 m/s 683 mmHg 23%
    21:00 +15°C° 0 mm 0 m/s 683 mmHg 25%
    22:00 +15°C° 0 mm 1 m/s 684 mmHg 26%
    23:00 +14°C° 0 mm 1 m/s 684 mmHg 27%

    27 Juillet, Samedi

    Heure Température Précipitation Vent Pression Humidité
    00:00 +13°C° 0 mm 1 m/s 684 mmHg 30%
    01:00 +13°C° 0 mm 1 m/s 684 mmHg 34%
    02:00 +12°C° 0 mm 2 m/s 684 mmHg 37%
    03:00 +10°C° 0 mm 2 m/s 684 mmHg 42%
    04:00 +10°C° 0 mm 2 m/s 684 mmHg 48%
    05:00 +9°C° 0 mm 2 m/s 684 mmHg 53%
    06:00 +10°C° 0 mm 2 m/s 685 mmHg 54%
    07:00 +10°C° 0 mm 2 m/s 685 mmHg 55%
    08:00 +10°C° 0 mm 2 m/s 686 mmHg 56%
    09:00 +13°C° 0 mm 3 m/s 686 mmHg 52%
    10:00 +17°C° 0 mm 4 m/s 687 mmHg 48%
    11:00 +20°C° 0 mm 5 m/s 687 mmHg 44%
    12:00 +21°C° 0 mm 5 m/s 687 mmHg 38%
    13:00 +23°C° 0 mm 4 m/s 686 mmHg 33%
    14:00 +25°C° 0 mm 4 m/s 685 mmHg 27%
    15:00 +25°C° 0 mm 4 m/s 685 mmHg 27%
    16:00 +24°C° 0 mm 3 m/s 685 mmHg 27%
    17:00 +24°C° 0 mm 3 m/s 684 mmHg 27%
    18:00 +21°C° 0 mm 2 m/s 684 mmHg 34%
    19:00 +18°C° 0 mm 2 m/s 684 mmHg 42%
    20:00 +15°C° 0 mm 2 m/s 683 mmHg 49%
    21:00 +14°C° 0 mm 2 m/s 683 mmHg 52%
    22:00 +14°C° 0 mm 1 m/s 683 mmHg 56%
    23:00 +13°C° 0 mm 1 m/s 683 mmHg 60%

    28 Juillet, Dimanche

    Heure Température Précipitation Vent Pression Humidité
    00:00 +12°C° 0 mm 1 m/s 683 mmHg 63%
    01:00 +11°C° 0 mm 1 m/s 683 mmHg 66%
    02:00 +11°C° 0 mm 1 m/s 683 mmHg 69%
    03:00 +10°C° 0 mm 1 m/s 682 mmHg 73%
    04:00 +9°C° 0 mm 1 m/s 682 mmHg 78%
    05:00 +9°C° 0 mm 1 m/s 682 mmHg 82%
    06:00 +9°C° 0 mm 1 m/s 682 mmHg 80%
    07:00 +10°C° 0 mm 1 m/s 683 mmHg 78%
    08:00 +10°C° 0 mm 1 m/s 683 mmHg 76%
    09:00 +14°C° 0 mm 1 m/s 684 mmHg 63%
    10:00 +17°C° 0 mm 2 m/s 684 mmHg 51%
    11:00 +20°C° 0 mm 2 m/s 684 mmHg 39%
    12:00 +23°C° 0 mm 2 m/s 684 mmHg 33%
    13:00 +25°C° 0 mm 2 m/s 683 mmHg 27%
    14:00 +27°C° 0 mm 2 m/s 683 mmHg 21%
    15:00 +26°C° 0 mm 2 m/s 683 mmHg 21%
    16:00 +26°C° 0 mm 1 m/s 682 mmHg 21%
    17:00 +26°C° 0 mm 1 m/s 682 mmHg 20%
    18:00 +23°C° 0 mm 1 m/s 682 mmHg 26%
    19:00 +20°C° 0 mm 1 m/s 681 mmHg 31%
    20:00 +15°C° 0 mm 0 m/s 681 mmHg 36%
    21:00 +15°C° 0 mm 0 m/s 681 mmHg 37%
    22:00 +15°C° 0 mm 1 m/s 681 mmHg 38%
    23:00 +15°C° 0 mm 1 m/s 681 mmHg 39%

    29 Juillet, Lundi

    Heure Température Précipitation Vent Pression Humidité
    00:00 +14°C° 0 mm 1 m/s 681 mmHg 40%
    01:00 +13°C° 0 mm 1 m/s 680 mmHg 42%
    02:00 +12°C° 0 mm 1 m/s 680 mmHg 44%
    03:00 +12°C° 0 mm 1 m/s 680 mmHg 46%
    04:00 +10°C° 0 mm 0 m/s 680 mmHg 47%
    05:00 +10°C° 0 mm 0 m/s 680 mmHg 49%
    06:00 +11°C° 0 mm 0 m/s 680 mmHg 47%
    07:00 +12°C° 0 mm 1 m/s 681 mmHg 44%
    08:00 +13°C° 0 mm 1 m/s 682 mmHg 42%
    09:00 +18°C° 0 mm 1 m/s 682 mmHg 35%
    10:00 +22°C° 0 mm 1 m/s 682 mmHg 28%
    11:00 +25°C° 0 mm 1 m/s 683 mmHg 21%
    12:00 +27°C° 0 mm 1 m/s 682 mmHg 18%
    13:00 +28°C° 0 mm 2 m/s 682 mmHg 15%
    14:00 +29°C° 0 mm 2 m/s 681 mmHg 12%
    15:00 +29°C° 0 mm 2 m/s 681 mmHg 12%
    16:00 +29°C° 0 mm 2 m/s 680 mmHg 12%
    17:00 +28°C° 0 mm 2 m/s 680 mmHg 12%
    18:00 +25°C° 0 mm 1 m/s 680 mmHg 15%
    19:00 +22°C° 0 mm 1 m/s 680 mmHg 18%
    20:00 +19°C° 0 mm 1 m/s 679 mmHg 21%
    21:00 +18°C° 0 mm 1 m/s 679 mmHg 22%
    22:00 +16°C° 0 mm 1 m/s 679 mmHg 23%
    23:00 +15°C° 0 mm 1 m/s 679 mmHg 24%
    Voir plus